Change the Weather History Date:

Wednesday, February 20, 2013

  Actual Average Record
Temperature  
Mean Temperature 26 °F -  
Max Temperature 30 °F 36 °F 53 °F (2007)
Min Temperature 23 °F 29 °F 23 °F (2012)
Degree Days  
Heating Degree Days 38    
Moisture  
Dew Point 22 °F    
Average Humidity 81    
Maximum Humidity 100    
Minimum Humidity 51    
Precipitation  
Precipitation 0.00 in - - ()
Sea Level Pressure  
Sea Level Pressure 30.10 in    
Wind  
Wind Speed 9 mph ()    
Max Wind Speed 13 mph    
Max Gust Speed -    
Visibility 5.8 miles    
Events Snow    
Averages and records for this station are not official NWS values.
T = Trace of Precipitation, MM = Missing Value Source: Averaged Metar Reports

Daily Weather History Graph

Daily Weather History Graph

Search for Another Location

Airport or City:

Trip Planner

Search our weather history database for the weather conditions in past years. The results will help you decide how hot, cold, wet, or windy it might be!

Date:

Astronomy

Feb. 20, 2013 Rise Set
Actual Time 7:37 AM CET 6:01 PM CET
Civil Twilight 7:03 AM CET 6:34 PM CET
Nautical Twilight 6:26 AM CET 7:12 PM CET
Astronomical Twilight 5:48 AM CET 7:50 PM CET
Moon 12:49 PM CET (2/20) 4:04 AM CET (2/20)
Length of Visible Light 11h 30m
Length of Day
10h 24m
Waxing Gibbous, 74% of the Moon is Illuminated
Feb 20
Waxing Gibbous
Feb 25
Full
Mar 4
Last Quarter
Mar 11
New
Mar 19
First Quarter

Hourly Weather History & Observations

Time (CET) Temp. Windchill Dew Point Humidity Pressure Visibility Wind Dir Wind Speed Gust Speed Precip Events Conditions
1:17 AM 30.2 °F 21.9 °F 30.2 °F 100% 30.01 in 2.2 mi ENE 9.2 mph - N/A   Mostly Cloudy
1:25 AM 30.2 °F 22.6 °F 30.2 °F 100% 30.01 in 3.1 mi ENE 8.1 mph - N/A   Mostly Cloudy
1:32 AM 30.2 °F 23.4 °F 30.2 °F 100% 30.01 in 3.1 mi ENE 6.9 mph - N/A   Mostly Cloudy
1:57 AM 30.2 °F 21.9 °F 30.2 °F 100% 30.01 in - ENE 9.2 mph - N/A   Mostly Cloudy
2:22 AM 30.2 °F 23.4 °F 28.4 °F 93% 30.01 in 3.1 mi ENE 6.9 mph - N/A   Mostly Cloudy
2:25 AM 30.2 °F 23.4 °F 28.4 °F 93% 30.01 in 3.1 mi NE 6.9 mph - N/A   Mostly Cloudy
2:34 AM 30.2 °F 22.6 °F 28.4 °F 93% 30.04 in 3.7 mi NE 8.1 mph - N/A   Mostly Cloudy
2:47 AM 30.2 °F 23.4 °F 28.4 °F 93% 30.04 in 3.7 mi NE 6.9 mph - N/A   Mostly Cloudy
2:57 AM 30.2 °F 23.4 °F 28.4 °F 93% 30.04 in - NE 6.9 mph - N/A   Mostly Cloudy
3:17 AM 30.2 °F 22.6 °F 28.4 °F 93% 30.04 in 1.9 mi NE 8.1 mph - N/A   Mostly Cloudy
3:25 AM 30.2 °F 22.6 °F 28.4 °F 93% 30.04 in - NE 8.1 mph - N/A   Mostly Cloudy
3:42 AM 28.4 °F 19.7 °F 26.6 °F 93% 30.04 in 3.7 mi ENE 9.2 mph - N/A   Mostly Cloudy
4:17 AM 26.6 °F 19.1 °F 24.8 °F 93% 30.04 in 6.2 mi ENE 6.9 mph - N/A   Mostly Cloudy
4:25 AM 26.6 °F 18.2 °F 24.8 °F 93% 30.04 in 6.2 mi ENE 8.1 mph - N/A   Mostly Cloudy
4:32 AM 26.6 °F 17.5 °F 24.8 °F 93% 30.04 in 6.2 mi ENE 9.2 mph - N/A   Mostly Cloudy
4:57 AM 26.6 °F 17.5 °F 23.0 °F 86% 30.04 in 6.2 mi NE 9.2 mph - N/A   Scattered Clouds
5:07 AM 24.8 °F 16.1 °F 23.0 °F 93% 30.04 in 6.2 mi ENE 8.1 mph - N/A   Scattered Clouds
5:25 AM 26.6 °F 17.5 °F 24.8 °F 93% 30.04 in 6.2 mi ENE 9.2 mph - N/A   Mostly Cloudy
6:25 AM 26.6 °F 16.2 °F 23.0 °F 86% 30.06 in 6.2 mi ENE 11.5 mph - N/A   Mostly Cloudy
6:37 AM 24.8 °F 13.4 °F 23.0 °F 93% 30.06 in 6.2 mi ENE 12.7 mph - N/A   Mostly Cloudy
7:00 AM 25 °F - 22 °F 85% 30.19 in 12 mi ENE 8.9 mph - -   Overcast
7:25 AM 24.8 °F 15.3 °F 23.0 °F 93% 30.06 in 6.2 mi ENE 9.2 mph - N/A   Mostly Cloudy
8:25 AM 24.8 °F 15.3 °F 21.2 °F 86% 30.09 in 6.2 mi East 9.2 mph - N/A   Mostly Cloudy
8:52 AM 24.8 °F 15.3 °F 21.2 °F 86% 30.09 in 6.2 mi East 9.2 mph - N/A   Partly Cloudy
10:00 AM 26 °F - 20 °F 68% 30.23 in 25 mi East 11.2 mph - -   Scattered Clouds
10:25 AM 26.6 °F 16.2 °F 19.4 °F 74% 30.12 in 6.2 mi East 11.5 mph - N/A   Partly Cloudy
10:42 AM 28.4 °F 19.7 °F 21.2 °F 74% 30.12 in 6.2 mi ENE 9.2 mph - N/A   Scattered Clouds
11:25 AM 28.4 °F 19.1 °F 21.2 °F 74% 30.12 in 6.2 mi ENE 10.4 mph - N/A   Scattered Clouds
11:32 AM 26.6 °F 15.7 °F 19.4 °F 74% 30.12 in 6.2 mi ENE 12.7 mph - N/A   Scattered Clouds
12:25 PM 28.4 °F 18.5 °F 17.6 °F 64% 30.12 in 6.2 mi East 11.5 mph - N/A   Mostly Cloudy
1:00 PM 27 °F - 17 °F 56% 30.25 in 22 mi East 13.4 mph - -   Mostly Cloudy
1:25 PM 28.4 °F 18.5 °F 17.6 °F 64% 30.12 in 6.2 mi East 11.5 mph - N/A   Mostly Cloudy
2:25 PM 28.4 °F 19.1 °F 17.6 °F 64% 30.12 in 6.2 mi East 10.4 mph - N/A   Mostly Cloudy
2:28 PM 30.2 °F 21.9 °F 19.4 °F 64% 30.12 in 6.2 mi East 9.2 mph - N/A   Mostly Cloudy
3:19 PM 26.6 °F 16.2 °F 19.4 °F 74% 30.12 in 6.2 mi NE 11.5 mph - N/A   Mostly Cloudy
3:25 PM 26.6 °F 16.8 °F 19.4 °F 74% 30.12 in 6.2 mi NE 10.4 mph - N/A   Mostly Cloudy
3:53 PM 28.4 °F 19.7 °F 17.6 °F 64% 30.12 in 6.2 mi ENE 9.2 mph - N/A   Mostly Cloudy
4:00 PM 28 °F - 17 °F 51% 30.23 in 28 mi ENE 8.9 mph - -   Mostly Cloudy
4:03 PM 26.6 °F 16.2 °F 19.4 °F 74% 30.12 in 6.2 mi NE 11.5 mph - N/A   Mostly Cloudy
4:25 PM 26.6 °F 16.2 °F 17.6 °F 69% 30.12 in 6.2 mi NE 11.5 mph - N/A   Mostly Cloudy
4:33 PM 26.6 °F 16.8 °F 17.6 °F 69% 30.12 in 6.2 mi ENE 10.4 mph - N/A   Mostly Cloudy
5:25 PM 26.6 °F 16.8 °F 17.6 °F 69% 30.12 in 6.2 mi NE 10.4 mph - N/A   Mostly Cloudy
6:03 PM 24.8 °F 14.6 °F 19.4 °F 80% 30.12 in 4.3 mi NE 10.4 mph - N/A   Mostly Cloudy
6:25 PM 24.8 °F 15.3 °F 19.4 °F 80% 30.12 in 3.1 mi NE 9.2 mph - N/A   Mostly Cloudy
6:38 PM 24.8 °F 15.3 °F 19.4 °F 80% 30.12 in 6.2 mi NE 9.2 mph - N/A   Mostly Cloudy
7:00 PM 25 °F - 19 °F 68% 30.26 in 8 mi NE 11.2 mph - - Snow Light Snow
7:25 PM 24.8 °F 14.6 °F 17.6 °F 74% 30.12 in 6.2 mi ENE 10.4 mph - N/A   Mostly Cloudy
8:07 PM 24.8 °F 16.1 °F 19.4 °F 80% 30.12 in - ENE 8.1 mph - N/A   Mostly Cloudy
8:13 PM 24.8 °F 15.3 °F 19.4 °F 80% 30.12 in 3.7 mi ENE 9.2 mph - N/A   Mostly Cloudy
8:25 PM 24.8 °F 15.3 °F 17.6 °F 74% 30.12 in 6.2 mi ENE 9.2 mph - N/A   Mostly Cloudy
8:33 PM 24.8 °F 14.0 °F 17.6 °F 74% 30.12 in 6.2 mi NE 11.5 mph - N/A   Mostly Cloudy
9:18 PM 23.0 °F 12.4 °F 19.4 °F 86% 30.12 in 6.2 mi NE 10.4 mph - N/A   Mostly Cloudy
9:25 PM 23.0 °F 12.4 °F 17.6 °F 80% 30.12 in 6.2 mi ENE 10.4 mph - N/A   Mostly Cloudy
9:48 PM 23.0 °F 13.1 °F 19.4 °F 86% 30.12 in 6.2 mi ENE 9.2 mph - N/A   Mostly Cloudy
10:00 PM 23 °F - 18 °F 76% 30.26 in 11 mi ENE 8.9 mph - - Snow Snow Grains
10:08 PM 23.0 °F 12.4 °F 17.6 °F 80% 30.12 in 6.2 mi ENE 10.4 mph - N/A   Mostly Cloudy
10:25 PM 23.0 °F 11.7 °F 19.4 °F 86% 30.12 in 6.2 mi ENE 11.5 mph - N/A   Mostly Cloudy
10:58 PM 23.0 °F 13.9 °F 19.4 °F 86% 30.12 in 6.2 mi ENE 8.1 mph - N/A   Mostly Cloudy
11:04 PM 23.0 °F 13.9 °F 19.4 °F 86% 30.12 in 6.2 mi ENE 8.1 mph - N/A   Mostly Cloudy
11:25 PM 23.0 °F 13.1 °F 19.4 °F 86% 30.12 in 6.2 mi ENE 9.2 mph - N/A   Mostly Cloudy